Santiago, Chile

5:17 AM -03 en Enero 24, 2019 (GMT -0300)
Arturo Merino Benitez International

Tiempo Historia de SCEL - Enero, 2019

Change the Weather History Date:

Sábado, Enero 12, 2019

  Actual Average Record
Temperature  
Temperatura media 68 ° F -  
Temperatura máxima 82 ° F 82 ° F 93 ° F (2007)
Temperatura mínima 55 ° F 52 ° F 48 ° F (2001)
Cooling Degree Days 4    
Growing Degree Days 18 (Base 50)    
Moisture  
Punto de rocío 47 ° F    
Average Humidity 48    
Maximum Humidity 67    
Minimum Humidity 22    
Precipitación  
Precipitación 0.00 pul - - ()
Presión al nivel del mar  
Presión al nivel del mar 30.02 pul    
Viento  
Velocidad del viento 8 mph ()    
Velocidad máxima del viento 20 mph    
Max Gust Speed -    
Visibilidad 6.0 Millas    
Eventos      
Averages and records for this station are not official NWS values.
T = Trace of Precipitation, MM = Missing Value Source: Averaged Metar Reports

Daily Weather History Graph

Daily Weather History Graph

Search for Another Location

Airport or City:

Astronomía

Jan. 12, 2019 Salida Puesta
Hora real 6:46 AM -03 8:56 PM -03
Crepúsculo civil 6:17 AM -03 9:24 PM -03
Crepúsculo náutico 5:43 AM -03 9:58 PM -03
Crepúsculo astronómico 5:06 AM -03 10:36 PM -03
Luna 12:28 PM -03 (1/12) 12:29 AM -03 (1/12)
Horas de luz 15h 06m
Horas de luz
14h 10m
Creciente, 34% of the Moon is Illuminated
Ene 12
Creciente
Ene 14
Cuarto creciente
Ene 21
Luna llena
Ene 27
Cuarto menguante
Feb 4
Nueva

Hourly Weather History & Observations

Hora (-03) Temp. Punto de rocío Humedad Presión Visibilidad Wind Dir Velocidad del viento Velocidad de ráfagas Precip Eventos Condiciones
12:00 AM 62.6 ° F 46.4 ° F 55% 30.06 pul - SSE 11.5 mph - N/A   Despejado
1:00 AM 60.8 ° F 46.4 ° F 59% 30.06 pul - SSE 8.1 mph - N/A   Despejado
2:00 AM 60.8 ° F 46.4 ° F 59% 30.04 pul - SSE 6.9 mph - N/A   Despejado
3:00 AM 59 ° F 45 ° F 50% 30.04 pul 6 mi SSE 5.8 mph - -   Parcialmente nublado
3:00 AM 59.0 ° F 44.6 ° F 59% 30.04 pul - SSE 5.8 mph - N/A   Despejado
4:00 AM 57.2 ° F 44.6 ° F 63% 30.04 pul - Sur 3.5 mph - N/A   Despejado
5:00 AM 57.2 ° F 44.6 ° F 63% 30.04 pul - SSE 3.5 mph - N/A   Despejado
6:00 AM 56 ° F 45 ° F 56% 30.05 pul 6 mi SSO 4.6 mph - -   Parcialmente nublado
6:00 AM 55.4 ° F 44.6 ° F 67% 30.04 pul - SSO 4.6 mph - N/A   Despejado
7:00 AM 55.4 ° F 42.8 ° F 63% 30.06 pul - SSE 5.8 mph - N/A   Despejado
8:00 AM 57.2 ° F 44.6 ° F 63% 30.06 pul - SSE 4.6 mph - N/A   Despejado
9:00 AM 62 ° F 46 ° F 45% 30.06 pul 6 mi Sin viento Sin viento - -   Parcialmente nublado
9:00 AM 62.6 ° F 46.4 ° F 55% 30.06 pul - Variable 2.3 mph - N/A   Despejado
10:00 AM 64.4 ° F 46.4 ° F 52% 30.06 pul - SSE 6.9 mph - N/A   Despejado
11:00 AM 68.0 ° F 46.4 ° F 46% 30.06 pul - SSE 6.9 mph - N/A   Despejado
12:00 PM 72 ° F 47 ° F 30% 30.01 pul 6 mi SSE 11.5 mph - -   Parcialmente nublado
12:00 PM 71.6 ° F 46.4 ° F 41% 30.04 pul - SSE 11.5 mph - N/A   Despejado
1:00 PM 75.2 ° F 48.2 ° F 38% 30.04 pul - SSE 9.2 mph - N/A   Despejado
2:00 PM 78.8 ° F 48.2 ° F 34% 30.01 pul 6.2 mi Sur 10.4 mph - N/A   Nubes dispersas
3:00 PM 80 ° F 47 ° F 22% 29.94 pul 6 mi SSO 12.7 mph - -   Parcialmente nublado
3:00 PM 80.6 ° F 48.2 ° F 32% 30.01 pul - SSO 12.7 mph - N/A   Despejado
4:00 PM 80.6 ° F 50.0 ° F 34% 29.98 pul - SO 17.3 mph - N/A   Despejado
5:00 PM 78.8 ° F 50.0 ° F 36% 29.98 pul - SO 18.4 mph - N/A   Despejado
6:00 PM 78 ° F 52 ° F 29% 29.91 pul 6 mi SSO 18.4 mph - -   Parcialmente nublado
6:00 PM 77.0 ° F 51.8 ° F 41% 29.98 pul - SSO 18.4 mph - N/A   Despejado
7:00 PM 75.2 ° F 50.0 ° F 41% 29.98 pul - SSO 19.6 mph - N/A   Despejado
8:00 PM 69.8 ° F 50.0 ° F 49% 29.98 pul - SSO 16.1 mph - N/A   Despejado
9:00 PM 68 ° F 51 ° F 43% 29.96 pul 6 mi SSO 15.0 mph - -   Parcialmente nublado
9:00 PM 68.0 ° F 50.0 ° F 52% 29.98 pul - SSO 15.0 mph - N/A   Despejado
10:00 PM 66.2 ° F 50.0 ° F 56% 30.01 pul - SSO 11.5 mph - N/A   Despejado
11:00 PM 64.4 ° F 48.2 ° F 56% 30.01 pul - SSE 8.1 mph - N/A   Despejado